Regional Weather Roundup
Issued by NWS

Home | Current Version | Previous Version | Text Only | Print | Product List | Glossary On
Versions: 1 2 3 4 5 6 7 8 9 10 11 12 13 14 15 16 17 18 19 20 21 22 23 24 25 26 27 28 29 30 31 32 33 34 35 36 37 38 39 40 41 42 43 44 45 46 47 48 49 50
000
ASUS43 KMKX 260821
RWRWI

WISCONSIN REGIONAL WEATHER ROUNDUP
NATIONAL WEATHER SERVICE MILWAUKEE/SULLIVAN WI
300 AM CDT SAT JUL 26 2014

NOTE: "FAIR" INDICATES FEW OR NO CLOUDS BELOW 12,000 FEET WITH NO
SIGNIFICANT WEATHER AND/OR OBSTRUCTIONS TO VISIBILITY.

WIZ001-002-006>008-014>016-023>028-260900-
NORTHWEST WISCONSIN

CITY           SKY/WX    TMP DP  RH WIND       PRES   REMARKS
SUPERIOR ARPT  MOCLDY    67  66  97 SW5       29.75S
ASHLAND        CLOUDY    70  66  87 SW7       29.77S
HAYWARD        CLOUDY    69  67  93 SW7       29.80S
SIREN          MOCLDY    69  67  93 SW6       29.78F
RICE LAKE      CLOUDY    69  66  91 S6        29.82F
LADYSMITH      CLOUDY    68  65  91 CALM      29.84S
EAU CLAIRE     CLOUDY    69  67  93 SW7       29.81F
MENOMONIE      CLOUDY    70  67  92 S8        29.82S
NEW RICHMOND   CLOUDY    71  70  97 S6        29.81S
OSCEOLA        CLOUDY    71  71 100 S3        29.82F
$$

WIZ003>005-009-010-017-018-260900-
NORTH CENTRAL WISCONSIN

CITY           SKY/WX    TMP DP  RH WIND       PRES   REMARKS
WOODRUFF       TSTM      64  62  91 S6        29.82F
RHINELANDER    LGT RAIN  63  62  97 SW7       29.84S
EAGLE RIVER    CLOUDY    64  63  95 SW5       29.82F
LAND O LAKES   CLOUDY    65  63  90 SW5       29.83S
PHILLIPS       CLOUDY    65  64  97 SW8       29.81F
TOMAHAWK       CLOUDY    63  61  94 CALM      29.84S
MEDFORD        CLOUDY    64  63  96 SW8       29.84S
MERRILL        CLOUDY    65  63  94 SW6       29.84S
$$

WIZ029-030-035-036-043>047-260900-
CENTRAL WISCONSIN

CITY           SKY/WX    TMP DP  RH WIND       PRES   REMARKS
WAUSAU         CLOUDY    65  62  90 SW7       29.83F
MOSINEE        CLOUDY    63  63 100 SW7       29.86S
MARSHFIELD     CLOUDY    65  62  90 SW3       29.84S
STEVENS POINT  CLOUDY    61  60  95 S3        29.84F
WAUPACA        PTCLDY    64  62  92 S5        29.83F
WAUTOMA        PTCLDY    64  62  93 CALM      29.85F
WISC RAPIDS    PTCLDY    64  62  93 S3        29.85F
CAMP DOUGLAS   MOCLDY    67  66  96 S8        29.85F
$$

WIZ011>013-019>022-031-037>040-048>050-260900-
NORTHEAST WISCONSIN

CITY           SKY/WX    TMP DP  RH WIND       PRES   REMARKS
ANTIGO         CLOUDY    63  62  96 SW8       29.85S
STURGEON BAY   CLOUDY    64  61  88 S5        29.84S
GREEN BAY      PTCLDY    66  62  87 SW6       29.84F
MANITOWOC      PTCLDY    66  61  84 SW6       29.85F
APPLETON       PTCLDY    64  59  82 SW12      29.85F
CLINTONVILLE   PTCLDY    64  61  88 SW5       29.83F
OSHKOSH        PTCLDY    64  61  90 S7        29.85F
$$

WIZ032>034-041-042-053>061-260900-
SOUTHWEST WISCONSIN

CITY           SKY/WX    TMP DP  RH WIND       PRES   REMARKS
LA CROSSE      CLOUDY    69  65  86 S9        29.83F
SPARTA         CLOUDY    66  64  93 CALM      29.85F
VIROQUA        CLOUDY    64  64 100 S6        29.87F
BOSCOBEL       CLOUDY    67  63  87 CALM      29.86F
PRAIRIE DU CHI CLOUDY    66  62  87 CALM      29.85F
PLATTEVILLE    CLOUDY    65  62  90 CALM      29.87F
$$

WIZ056-057-062-063-064-067-068-260900-
SOUTH CENTRAL WISCONSIN

CITY           SKY/WX    TMP DP  RH WIND       PRES   REMARKS
BARABOO/DELLS  CLOUDY    65  60  84 SW6       29.87F
LONE ROCK      CLOUDY    69  64  84 CALM      29.87F HAZE
WATERTOWN      PTCLDY    58  58  99 CALM      29.87F
MADISON        CLOUDY    68  60  75 SW7       29.88S
MIDDLETON      CLOUDY    67  61  81 SW5       29.88F
MONROE         CLOUDY    64  61  88 S6        29.88S
JANESVILLE     CLOUDY    68  59  73 SW3       29.87S
$$

WIZ051-052-058>065-066-070>072-260900-
SOUTHEAST WISCONSIN

CITY           SKY/WX    TMP DP  RH WIND       PRES   REMARKS
MILWAUKEE      PTCLDY    64  59  83 SW6       29.88F
WAUKESHA       CLEAR     59  57  94 CALM      29.89F
MILWAUKEE/TIMM CLEAR     61  55  82 CALM      29.88F
RACINE         CLEAR     63  59  87 W3        29.89F
BURLINGTON     CLEAR     56  56  98 CALM      29.88F FOG
KENOSHA        CLEAR     60  58  92 CALM      29.88F
FOND DU LAC    PTCLDY    63  60  90 S7        29.87F
SHEBOYGAN      PTCLDY    63  60  90 SW8       29.87S
WEST BEND      PTCLDY    63  57  82 SW5       29.88S
JUNEAU         CLEAR     60  58  91 S3        29.88F FOG
$$

LSZ147-162-260900-
LAKE SUPERIOR

STATION/POSITION TIME  TEMP    WIND        PRES    WAVE
                       AIR SEA DIR/SP/G            HT/PER
                 (UTC) (F)     (DEG/KT/KT) (MB)    (FT/S)
W MID LAKE BUOY  0750   54 48  160/  4/  6 1007.4F   0
PORT WING        0700   68     200/  3/  6 1007.8
SAXON HARBOR     0600          200/  7/ 13 1008.1
$$

LMZ867-665-643>646-260900-
LAKE MICHIGAN

STATION/POSITION TIME  TEMP    WIND        PRES    WAVE
                       AIR SEA DIR/SP/G            HT/PER
                 (UTC) (F)     (DEG/KT/KT) (MB)    (FT/S)
N MID LAKE BUOY  0750   59 56  220/ 12/ 14 1009.3F   2/ 5
NORTHPORT PIER   0700   62     160/  2/  5 1010.2F
KEWAUNEE LAKESHO 0700   53     190/  5/  6 1011.7F
SHEBOYGAN LAKESH 0800   67     250/  9/ 10 1011.2F
PORT WASHINGTON  0700   66     260/  4/  6 1012.2F
ATWATER BUOY     0800   65     240/  8     1012.5F
MILWAUKEE LAKESH 0800   66     230/  7/  9   N/A
S MID LAKE BUOY  0750   63 61  190/  8/ 10 1011.8F   1
KENOSHA   LAKESH 0800   65     220/  4/  7 1011.2F
$$

TC  - TEMPERATURE IN CELSIUS
VSB - VISIBILITY IN STATUTE MILES
WCI - WIND CHILL INDEX
HX  - HEAT INDEX




USA.gov is the U.S. government's official web portal to all federal, state and local government web resources and services.